Terminal Aerodrome Forecast
Issued by NWS Buffalo, NY

Home | Current Version | Previous Version | Text Only | Print | Product List | Glossary On
Versions: 1 2 3 4 5 6 7 8 9 10 11 12 13 14 15 16 17 18 19 20 21 22 23 24 25
000
FTUS41 KBUF 302300
TAFART
TAF
KART 302322Z 3100/3124 36003KT P6SM SKC
     FM310700 VRB03KT P6SM SKC
     FM311600 28004KT P6SM FEW250
     FM312000 24006KT P6SM SCT250
     FM312200 22005KT P6SM BKN070=

USA.gov is the U.S. government's official web portal to all federal, state and local government web resources and services.